Wind_Speed
10 18 20 26 25 28 28 30 28 31 31 28 28 26 25 26 21 18 17 18 14 13 23 17 8 21 16 16 13 17 12 11 10
25 32 23 22 19 24 25 27 28 28 33 30 29 27 26 24 25 23 20 19 19 19 15 15 14 17 19 17 16 14 15 16 14
19 19 13 17 16 25 24 24 27 27 32 31 29 28 27 26 25 26 26 19 17 21 18 16 16 19 18 19 16 17 18 17 16
8 16 13 14 12 24 24 21 22 25 29 28 26 26 26 26 26 24 25 22 20 22 19 16 23 16 15 19 16 17 18 19 18
14 24 11 13 10 24 24 22 22 25 22 26 27 27 26 28 25 25 25 24 22 22 23 21 20 18 19 21 17 18 18 21 19
20 12 11 12 11 9 21 23 19 25 24 23 24 26 27 25 25 24 24 25 25 24 24 26 24 23 22 21 25 21 19 20 21
18 13 10 10 11 8 10 16 15 13 22 23 23 25 22 24 24 25 24 24 25 28 27 26 25 25 25 25 23 24 23 24 22
25 15 13 13 12 10 11 11 10 7 7 8 11 13 16 18 20 21 23 22 22 24 25 27 27 27 28 25 26 26 26 26 26
16 13 13 12 13 12 12 13 11 10 8 8 7 8 11 9 14 17 20 21 24 20 22 23 24 26 28 31 28 30 32 32 28
8 14 15 13 11 10 14 14 13 11 10 8 7 2 1 1 3 6 12 17 18 22 26 24 23 29 28 29 30 33 34 28 32
13 22 15 13 10 12 10 10 11 12 10 8 6 5 3 5 5 7 9 9 11 14 17 22 25 31 37 32 32 33 35 33 29
23 23 18 15 16 16 10 10 7 7 10 9 6 8 9 9 9 10 12 15 17 17 17 18 22 29 30 31 32 34 37 36 35
10 10 17 13 16 16 12 10 8 7 9 9 14 12 8 8 9 8 10 13 17 21 22 23 24 26 26 33 35 35 37 37 38
12 15 14 11 15 14 13 9 9 6 10 15 12 10 9 8 9 11 12 14 15 18 21 24 26 28 30 30 29 34 36 37 36
12 11 12 10 12 15 9 8 8 8 17 13 12 13 10 10 11 14 14 15 15 17 20 22 26 28 30 30 30 27 30 33 34
7 9 13 8 15 16 11 10 7 13 16 15 16 13 12 14 14 16 17 18 20 18 18 16 21 23 23 24 20 15 21 28 30
7 7 7 7 12 11 11 11 9 15 16 17 14 15 13 15 17 17 20 24 24 20 23 21 18 14 6 6 9 10 11 11 13
8 8 7 7 9 10 10 12 11 16 18 17 14 15 14 14 15 17 19 23 31 25 22 17 12 11 7 7 10 5 8 11 12
9 9 8 11 13 15 15 14 14 16 16 14 14 14 13 13 12 13 16 18 24 35 33 32 26 19 20 20 29 17 20 27 34
13 11 10 9 10 9 11 11 16 16 17 13 11 16 12 14 12 12 11 14 17 19 27 37 45 45 42 39 40 45 46 45 45
Wind_Direction
20 207 186 170 181 189 165 185 164 167 172 182 191 194 199 207 212 218 220 223 208 201 222 240 257 206 211 214 215 230 229 233 241
167 232 185 180 179 166 166 161 167 171 172 181 190 197 199 202 207 212 223 227 224 223 225 225 219 209 223 223 230 219 224 234 240
247 169 180 163 164 161 162 165 171 176 174 181 191 197 200 203 206 212 220 227 228 228 233 231 212 212 208 223 227 232 227 237 241
286 131 148 144 157 151 164 175 174 178 175 180 189 200 203 206 207 212 218 227 223 227 231 231 236 229 212 226 223 223 228 237 244
33 290 140 138 154 152 157 167 190 177 182 183 189 198 208 207 209 211 213 217 225 225 231 231 230 233 237 230 232 233 229 234 245
216 185 141 140 149 144 153 166 187 178 189 190 195 201 208 213 213 215 220 225 223 224 225 229 229 233 236 237 232 234 232 232 237
249 134 138 139 147 143 133 147 161 166 182 198 196 198 201 213 221 222 220 224 225 227 226 226 230 233 232 231 231 232 235 235 234
185 144 155 147 138 132 123 119 132 166 188 195 195 204 212 224 229 234 235 235 237 236 234 229 231 231 233 232 230 231 229 230 231
144 150 148 140 127 137 140 143 150 164 176 171 204 195 224 223 240 245 245 250 249 248 244 235 232 228 229 229 229 230 232 227 221
227 164 140 130 134 144 141 146 148 147 149 134 150 169 114 265 269 255 249 251 260 258 258 256 261 263 248 238 232 232 235 237 223
57 276 127 122 132 119 127 139 157 148 151 151 155 144 106 27 352 328 320 309 288 281 276 260 242 256 255 243 240 237 235 238 245
174 242 126 125 128 125 142 125 112 143 138 129 138 101 65 28 358 336 320 309 304 297 293 280 260 248 249 246 243 242 241 240 238
106 96 96 123 137 131 153 130 150 161 152 132 87 74 53 37 9 345 324 310 299 290 283 283 278 272 262 252 245 244 244 241 236
110 106 120 140 133 144 141 150 148 168 114 93 85 80 61 38 16 355 336 319 304 295 289 280 273 272 267 262 254 242 241 240 239
121 128 124 151 150 126 116 110 122 116 109 111 102 90 77 48 25 11 355 339 325 312 298 283 273 263 262 256 256 247 241 240 237
131 147 153 187 113 127 133 136 175 141 136 123 105 96 76 52 41 23 12 2 355 345 333 307 295 249 247 247 240 226 232 236 237
156 137 121 116 130 140 140 153 184 166 140 126 120 108 91 71 56 40 31 27 22 11 2 350 335 346 228 184 187 203 222 229 233
110 134 157 157 165 158 145 174 189 167 144 137 132 114 104 87 73 60 45 40 37 37 36 31 16 13 39 91 84 136 204 207 177
138 144 137 163 169 166 172 180 177 165 154 147 144 122 111 102 92 77 65 55 52 53 58 56 62 79 89 98 104 113 121 121 116
127 137 165 168 162 166 171 185 176 164 151 156 159 121 120 119 109 102 87 70 56 50 50 61 70 72 80 80 93 102 106 108 104
Height
710 708 711 725 731 740 746 754 759 768 777 786 792 796 800 803 806 808 809 812 819 820 822 823 818 819 823 824 825 827 828 830 831
723 717 708 710 716 727 738 747 754 763 771 780 786 791 795 799 802 804 805 806 810 817 819 816 814 817 820 823 824 824 826 826 828
703 689 698 704 710 722 732 743 752 760 767 774 781 786 790 793 797 800 801 804 805 806 808 809 811 813 817 818 820 823 824 824 825
703 665 689 704 712 721 731 741 749 757 765 771 777 782 786 789 792 796 799 801 802 804 806 807 808 810 812 816 816 819 820 823 823
708 705 696 706 715 723 730 739 747 754 761 767 772 777 781 784 787 791 794 797 799 801 801 804 805 807 809 810 813 815 816 819 820
741 705 703 709 718 723 729 737 743 750 756 762 768 773 776 779 783 787 789 792 794 795 797 799 800 801 804 806 807 810 812 814 815
737 708 710 713 721 724 727 735 741 747 753 758 762 767 770 776 780 782 782 785 786 789 791 793 795 797 798 800 802 804 806 808 809
713 708 714 719 722 725 729 737 743 749 753 757 761 765 769 771 777 779 781 782 782 783 787 787 788 791 793 795 797 798 800 801 803
704 709 717 721 723 728 733 740 746 751 755 758 762 765 767 771 774 776 777 778 780 779 782 783 784 784 784 786 788 790 791 792 795
716 709 709 720 728 732 737 742 747 751 755 758 761 765 768 770 772 772 773 775 776 777 779 780 782 785 784 781 780 781 783 784 786
724 729 706 716 729 739 744 747 749 753 757 759 762 765 768 770 771 772 772 773 773 774 775 774 774 772 775 775 773 773 775 777 780
710 711 693 716 730 741 748 750 753 755 758 761 764 767 769 771 773 773 772 771 771 770 770 769 768 766 766 766 765 765 766 769 772
702 700 708 724 734 742 748 753 755 758 759 762 766 768 772 774 774 774 772 770 768 765 764 761 760 757 756 754 754 756 757 761 764
712 719 726 732 738 743 748 753 756 758 761 765 768 770 773 774 773 771 769 767 765 762 759 756 753 750 747 746 745 745 747 751 755
716 723 730 733 738 744 749 753 758 761 763 767 770 772 774 774 772 769 767 764 760 757 753 749 745 742 738 737 737 737 738 742 745
717 723 729 734 738 745 751 755 760 763 764 767 771 773 773 773 772 771 767 763 757 753 748 743 738 731 729 728 728 729 731 735 739
718 725 731 737 742 748 752 755 759 762 764 767 771 772 774 775 775 775 771 766 759 753 746 739 734 726 723 724 723 725 728 731 734
723 731 737 741 745 749 752 756 759 762 764 767 770 772 774 777 778 777 775 773 768 760 753 743 736 732 729 726 724 725 726 729 732
727 733 738 742 745 749 752 755 758 760 763 767 769 772 774 777 780 780 780 778 773 768 761 752 742 737 734 733 731 730 729 730 735
731 736 741 743 745 748 751 754 757 761 763 766 769 770 774 777 779 781 781 780 778 775 771 765 755 751 747 748 744 742 736 740 743